sat.trackr.live / text

‹ back to catalog

STARLINK-30083

NORAD 56295 · 2023-056K

PAYLOAD ACTIVE UNKNOWN

§ Identity

Operator
Country
US
Launch date
2023-04-19
Launch site
AFETR
Launch vehicle
Mass (kg)
RCS (m²)

Purposes: comms

External: N2YO · Heavens-Above · Gunter

§ Orbital elements

Epoch: 2026-05-24T23:05:15.159264Z

Period
94.27 min
Inclination
43.0047°
Eccentricity
0.0001171
Mean motion
15.27575865 rev/d
Perigee alt
482.3 km
Apogee alt
483.9 km
Semi-major
6,861.2 km
B*
4.2081e-5
RAAN
112.9616°
Arg perigee
273.2596°
Mean anomaly
86.8122°
Rev number
17,198

§ Raw data

STARLINK-300831 56295U 23056K   26144.96198101  .00000896  00000+0  42081-4 0  99962 56295  43.0047 112.9616 0001171 273.2596  86.8122 15.27575865171981

JSON: /api/v1/satellites/56295 · /tle

For live sub-satellite position, see the globe view (requires WebGL).

§ Visibility from observer

Set your observer location to see the next 7 days of passes ≥ 10°. The values pass through the URL so the page stays shareable.

No JS? Fill the form by hand. The geolocation button needs JavaScript.